Terug naar catalogus

STARLINK-6307

ActiefCommunicatieVLEO
NORAD 56529·PAYLOAD·🇺🇸 United States

Gelanceerd May 14, 2023 vanaf Cape Canaveral Space Force Station

Loading…

Volgende Passages (komende 24 uur)

TLE

VersSource: CelesTrak SupGP

Epoch: Sep 15, 2026, 02:49 UTC

1 56529C 23065AC  26258.11784722 -.00015360  00000+0 -55644-3 0  2589
2 56529  42.9994 211.6529 0001234 263.5660 223.1363 15.27580225    18

Volg STARLINK-6307 in realtime met AllMySat

Download on the App Store